Wind_Speed
21 15 18 19 18 18 15 12 17 14 22 25 13 16 18 21 21 19 21 19 19 18 21 17 17 15 19 16 12 11 10 12 13 13 8 8 9 8 8 10 12 15 15 14
17 20 21 18 20 20 19 9 11 15 17 11 17 17 17 17 20 23 23 21 21 21 22 21 19 16 16 16 11 11 10 10 8 5 5 6 7 6 10 9 11 11 9 9
21 22 22 17 16 16 15 10 10 14 12 4 8 20 11 14 18 22 22 23 23 24 25 25 23 21 19 17 16 15 12 7 6 6 5 5 2 6 7 4 2 3 9 13
23 23 21 18 17 17 18 12 18 16 13 11 15 13 18 22 17 16 25 26 26 27 27 26 25 24 22 20 18 16 15 11 7 7 5 9 10 8 8 10 10 15 19 20
22 21 24 21 19 16 13 16 17 12 12 14 14 9 15 16 17 17 25 28 28 29 29 29 27 24 23 21 21 19 16 14 13 6 9 8 6 8 5 8 12 16 8 12
22 21 19 20 19 16 18 9 14 8 11 14 17 12 6 10 18 18 13 29 29 29 29 29 30 30 26 24 21 18 21 14 8 4 0 1 2 6 9 10 9 4 7 6
23 24 16 15 18 20 14 12 8 10 11 13 16 15 11 19 19 20 21 44 30 28 28 26 30 34 30 27 24 23 20 13 8 5 4 3 4 5 4 4 4 9 5 6
17 19 21 16 20 16 13 16 10 13 11 13 13 9 16 14 24 33 37 44 33 33 31 31 28 33 33 29 26 23 20 16 11 9 8 5 3 2 2 6 11 12 7 6
18 21 22 22 18 17 16 17 18 18 14 7 6 9 10 8 7 4 8 12 27 25 32 34 31 34 34 30 30 26 23 18 14 12 8 3 3 4 6 12 14 5 6 8
19 14 21 18 17 16 17 17 13 12 10 11 8 10 10 15 9 10 8 6 9 30 35 35 33 35 35 32 30 28 26 21 15 14 7 1 4 7 7 6 7 8 9 11
25 17 21 22 16 21 15 12 9 13 11 9 10 4 13 11 9 7 7 9 5 12 21 26 27 33 36 32 31 30 26 24 19 16 11 11 10 7 8 8 7 8 10 12
25 8 13 27 21 24 20 17 11 9 9 8 10 4 13 11 11 10 7 1 6 4 16 28 27 30 34 32 31 30 26 24 20 17 12 9 8 6 10 10 8 10 12 12
18 13 10 14 20 20 18 16 20 18 14 13 11 4 8 9 9 8 7 4 9 15 9 22 23 29 34 34 34 31 29 24 20 17 16 11 9 8 9 9 9 10 12 12
19 18 13 14 16 17 21 22 22 20 11 14 12 6 9 9 9 11 7 7 7 15 19 24 25 29 38 39 38 34 32 26 22 21 16 12 13 12 9 9 10 13 11 14
16 12 17 18 21 20 17 24 21 21 19 16 9 19 4 7 7 2 3 3 6 8 15 24 29 30 38 38 38 35 31 27 22 23 17 15 16 14 10 11 11 11 12 15
11 9 12 19 20 19 22 22 23 24 23 23 20 14 22 17 17 9 0 4 9 8 13 16 29 33 32 38 39 37 32 29 25 18 20 17 16 13 12 11 13 13 14 17
14 13 13 16 18 20 21 21 22 18 16 14 11 7 14 14 7 2 1 4 8 9 13 18 22 25 29 38 37 35 34 29 27 25 20 17 17 15 15 14 13 14 16 15
9 14 12 14 16 21 18 21 19 16 16 17 17 18 9 4 2 3 2 6 6 11 13 16 14 18 26 33 34 31 29 29 26 26 20 18 18 17 17 17 15 15 16 16
11 5 9 13 16 16 21 9 11 16 15 9 8 10 5 8 2 9 9 4 1 7 10 14 14 19 24 31 30 29 27 27 28 28 24 22 20 19 20 19 17 16 17 17
23 24 10 12 12 18 14 10 6 18 13 18 20 10 8 7 5 7 12 6 1 4 6 9 12 16 26 32 30 30 29 29 28 25 23 21 20 20 20 19 18 16 19 20
14 9 12 11 12 17 15 7 18 6 13 28 2 11 13 6 9 8 7 4 4 5 6 7 12 18 27 30 28 30 30 30 29 25 22 20 20 20 21 21 19 20 22 27
16 5 10 12 14 18 13 9 9 9 14 2 4 12 3 2 4 9 9 11 11 9 10 12 14 21 25 25 25 29 27 24 21 19 19 20 20 21 19 20 21 21 21 22
11 8 8 2 2 25 18 22 22 10 10 9 7 5 5 8 10 11 14 18 17 15 15 17 21 19 19 25 25 16 13 12 15 12 14 19 19 17 20 24 20 20 18 19
8 12 1 5 7 4 17 20 17 12 7 4 3 5 8 11 13 14 12 19 20 22 25 25 21 22 21 21 19 17 14 13 12 13 15 17 19 22 22 24 18 15 17 16
9 5 8 1 10 7 17 13 10 8 8 9 9 10 12 14 14 15 17 14 12 7 20 8 19 21 16 9 11 17 11 10 10 11 11 15 15 16 19 21 16 15 20 17
7 4 2 7 11 10 13 8 11 10 10 9 10 10 11 13 15 10 8 8 9 7 13 10 8 4 4 7 29 18 18 14 13 7 9 12 15 14 13 7 7 8 12 15
Wind_Direction
205 213 217 216 203 226 214 227 155 234 159 162 162 175 180 182 160 174 172 177 178 176 163 165 172 165 168 174 180 188 193 196 223 237 243 248 255 265 273 268 265 279 288 286
194 216 219 219 212 233 240 214 214 205 154 186 159 174 188 186 172 175 180 183 186 174 163 169 166 174 167 172 173 180 201 219 206 228 260 277 278 288 304 291 293 292 297 292
205 212 231 228 211 227 250 242 239 210 150 170 216 155 131 261 193 176 186 186 186 178 172 174 174 177 175 176 179 184 195 209 199 218 277 291 320 296 294 276 237 234 267 268
224 210 221 230 225 205 231 213 261 238 178 211 178 231 169 216 190 194 191 186 190 184 178 179 182 182 180 180 182 192 185 189 217 212 184 249 266 281 272 284 280 273 281 292
212 229 209 224 230 228 236 222 230 238 245 234 235 232 156 181 192 199 202 190 195 186 188 184 187 185 184 177 178 194 181 185 206 247 212 234 247 235 240 277 272 291 332 325
234 218 222 209 225 219 222 260 202 228 254 255 228 222 153 188 208 214 219 204 196 191 190 191 186 182 185 176 183 184 194 194 195 227 217 313 277 254 245 244 259 327 276 304
220 229 199 208 202 212 206 208 206 225 229 242 233 223 237 185 215 207 163 230 200 194 191 193 184 178 182 179 184 193 201 187 190 183 183 212 245 250 311 339 304 271 327 291
208 220 198 203 212 198 188 222 217 208 230 232 207 186 223 190 179 197 202 213 198 194 193 187 192 181 178 179 187 195 205 191 197 183 196 224 273 161 242 272 236 277 277 274
197 226 189 208 220 190 185 235 248 263 270 255 192 197 221 160 163 158 181 217 194 198 191 187 187 183 177 182 191 202 215 199 198 194 210 259 313 327 212 243 263 279 276 275
195 221 186 209 208 223 219 206 233 252 266 284 246 235 219 155 155 170 185 225 228 194 198 190 187 181 182 184 194 202 218 210 200 195 225 194 259 268 283 279 287 285 288 293
235 205 190 194 195 217 212 231 217 250 232 265 260 71 102 138 153 145 162 186 210 254 213 190 189 190 183 186 195 201 215 213 206 192 200 203 234 230 249 272 280 280 279 282
235 244 251 195 197 207 230 202 232 247 255 272 294 298 138 140 147 168 126 200 156 260 280 181 188 186 178 184 192 200 207 213 208 201 205 230 252 226 223 250 266 271 280 282
222 237 248 236 200 199 220 228 217 224 241 257 254 175 127 151 140 135 135 63 178 176 192 181 198 198 185 192 194 199 204 206 209 201 207 229 240 241 244 249 271 279 282 294
218 217 231 246 233 201 202 217 234 254 236 241 229 145 174 204 164 137 185 186 192 197 201 200 205 208 193 194 197 197 200 206 207 215 208 222 243 258 251 247 263 270 285 290
220 227 239 234 259 267 242 212 221 239 261 267 230 195 136 219 207 64 89 267 260 238 217 211 203 208 199 192 196 196 197 201 206 208 207 220 230 242 251 244 261 275 277 285
196 218 233 252 254 244 253 264 208 217 228 246 252 219 199 184 155 170 202 298 284 245 252 252 208 208 200 191 193 190 193 202 204 204 217 226 229 233 244 242 253 269 278 282
197 208 223 241 244 256 258 252 250 238 229 242 272 309 113 149 169 104 50 284 283 290 279 277 226 213 198 190 187 189 192 203 212 219 220 221 222 229 234 239 246 254 271 285
242 222 210 231 240 242 248 264 255 249 236 233 213 213 135 82 34 250 170 266 298 282 275 278 229 214 200 185 184 191 200 204 209 223 224 222 225 230 234 237 246 253 269 283
347 311 223 227 232 244 247 286 41 31 319 286 288 212 208 111 325 34 353 202 244 276 269 257 247 213 199 185 189 193 198 205 213 223 230 228 230 231 233 237 245 254 258 272
181 182 229 279 251 254 258 177 113 351 309 26 10 356 165 122 263 99 73 72 347 285 268 240 224 204 197 186 187 194 197 208 220 229 233 236 234 230 240 244 247 247 259 262
229 200 235 222 247 264 271 117 103 159 257 294 268 27 9 7 26 96 145 174 202 228 225 214 204 193 184 180 187 199 202 208 225 227 233 239 235 234 241 242 246 251 270 285
268 250 245 249 251 250 320 99 160 80 100 53 45 61 87 42 343 330 316 198 193 213 201 183 181 178 182 192 194 199 210 224 229 235 233 237 241 242 243 246 251 262 271 276
217 170 179 317 8 330 68 95 112 98 80 54 36 0 317 286 287 297 307 303 198 198 201 192 187 186 197 194 195 189 198 216 220 226 239 244 240 246 240 241 255 275 278 277
37 13 111 141 150 114 348 56 51 59 53 32 2 321 313 308 307 309 294 292 209 209 201 192 187 176 182 188 186 196 213 241 261 262 251 243 239 238 245 252 257 277 269 264
235 65 336 291 34 230 77 61 48 38 24 18 4 347 335 327 312 299 282 272 203 224 139 117 126 141 141 122 96 81 32 350 300 249 245 251 250 256 265 256 236 249 268 279
45 106 195 79 71 49 57 35 56 34 12 5 1 348 335 326 328 302 162 159 156 92 123 131 129 151 294 303 293 296 269 266 245 236 237 248 253 270 283 295 268 258 272 276
Height
1474 1476 1476 1463 1460 1456 1456 1462 1480 1474 1476 1484 1492 1495 1496 1498 1505 1512 1516 1522 1525 1528 1532 1538 1541 1544 1548 1552 1556 1558 1560 1563 1564 1564 1565 1564 1565 1565 1565 1566 1566 1566 1566 1564
1471 1472 1458 1453 1456 1456 1454 1461 1466 1465 1464 1471 1492 1497 1492 1495 1497 1505 1511 1518 1521 1525 1529 1535 1539 1544 1547 1551 1553 1557 1559 1560 1561 1562 1563 1563 1564 1564 1563 1563 1562 1563 1562 1562
1465 1462 1454 1452 1454 1460 1458 1465 1463 1466 1463 1468 1477 1495 1508 1499 1495 1498 1505 1512 1516 1521 1527 1533 1537 1541 1545 1549 1551 1555 1557 1558 1560 1560 1561 1561 1561 1562 1563 1563 1563 1561 1561 1561
1457 1451 1452 1452 1455 1458 1471 1458 1459 1460 1470 1490 1472 1506 1499 1494 1491 1492 1496 1503 1509 1516 1523 1530 1535 1538 1542 1545 1549 1551 1554 1556 1558 1559 1560 1560 1560 1561 1561 1561 1559 1559 1559 1557
1455 1447 1450 1456 1452 1451 1464 1453 1459 1458 1467 1474 1474 1492 1484 1483 1487 1486 1489 1495 1501 1509 1516 1523 1530 1535 1539 1542 1547 1548 1551 1554 1555 1556 1557 1557 1557 1557 1558 1558 1558 1558 1557 1556
1443 1442 1442 1446 1446 1449 1452 1457 1454 1460 1469 1489 1471 1477 1495 1495 1483 1483 1489 1494 1499 1502 1509 1516 1522 1529 1536 1539 1544 1546 1547 1550 1552 1552 1553 1553 1554 1554 1555 1555 1556 1556 1556 1556
1445 1439 1434 1440 1448 1445 1449 1464 1489 1498 1494 1492 1454 1469 1470 1465 1467 1475 1491 1502 1491 1495 1503 1511 1517 1522 1529 1534 1541 1542 1544 1546 1548 1550 1551 1551 1552 1552 1552 1553 1554 1554 1554 1554
1454 1460 1436 1436 1440 1446 1452 1459 1478 1504 1489 1473 1448 1478 1467 1450 1454 1465 1475 1480 1481 1486 1492 1503 1512 1517 1523 1528 1535 1539 1541 1543 1545 1547 1548 1548 1548 1549 1550 1551 1551 1551 1551 1551
1445 1446 1425 1431 1432 1435 1453 1464 1445 1460 1450 1466 1460 1453 1446 1448 1455 1460 1465 1472 1474 1483 1486 1493 1503 1511 1517 1524 1529 1535 1539 1540 1541 1543 1544 1545 1545 1546 1547 1547 1548 1548 1549 1547
1425 1446 1424 1427 1433 1433 1440 1443 1468 1458 1487 1492 1462 1460 1457 1454 1458 1460 1465 1469 1473 1476 1479 1478 1494 1503 1511 1519 1525 1529 1536 1538 1539 1540 1541 1542 1543 1544 1544 1544 1544 1545 1545 1544
1411 1419 1427 1423 1434 1442 1441 1449 1446 1447 1455 1476 1480 1481 1447 1453 1455 1459 1463 1468 1474 1476 1479 1483 1492 1499 1505 1514 1520 1524 1531 1535 1536 1537 1538 1540 1540 1541 1541 1541 1542 1542 1542 1541
1408 1416 1431 1425 1416 1422 1427 1439 1444 1466 1471 1461 1464 1468 1438 1446 1453 1458 1462 1467 1471 1476 1479 1482 1490 1496 1502 1509 1516 1519 1526 1531 1534 1535 1536 1536 1537 1537 1539 1539 1539 1539 1539 1538
1408 1420 1440 1434 1421 1419 1432 1432 1436 1441 1444 1462 1472 1467 1441 1445 1450 1456 1460 1465 1468 1472 1477 1482 1488 1492 1497 1503 1510 1513 1521 1527 1530 1532 1532 1532 1534 1534 1535 1535 1536 1536 1535 1534
1402 1412 1427 1440 1431 1420 1434 1433 1432 1435 1451 1452 1452 1457 1452 1448 1449 1456 1461 1464 1467 1469 1472 1475 1480 1487 1489 1494 1501 1508 1515 1522 1526 1527 1528 1528 1530 1531 1532 1533 1533 1532 1532 1531
1400 1420 1418 1417 1416 1416 1419 1426 1429 1437 1436 1450 1444 1460 1455 1462 1463 1459 1459 1464 1465 1465 1468 1470 1474 1479 1484 1489 1494 1502 1510 1517 1521 1524 1525 1526 1527 1527 1528 1528 1528 1528 1529 1528
1398 1419 1419 1427 1415 1416 1421 1414 1417 1423 1426 1429 1430 1437 1430 1446 1452 1457 1457 1461 1463 1462 1465 1467 1469 1473 1476 1483 1489 1496 1504 1511 1516 1518 1517 1521 1523 1523 1524 1524 1525 1524 1524 1524
1403 1413 1426 1438 1422 1422 1430 1414 1411 1411 1413 1422 1438 1430 1434 1441 1448 1450 1454 1459 1461 1460 1462 1464 1466 1469 1471 1475 1483 1490 1498 1505 1510 1514 1515 1516 1518 1519 1519 1519 1519 1520 1521 1520
1408 1413 1415 1429 1426 1449 1413 1399 1399 1403 1409 1410 1415 1421 1430 1437 1445 1446 1447 1453 1452 1459 1461 1461 1463 1467 1470 1474 1480 1486 1492 1500 1506 1509 1510 1511 1512 1514 1514 1514 1515 1516 1515 1514
1421 1417 1421 1426 1427 1416 1410 1404 1412 1428 1423 1411 1412 1416 1425 1433 1445 1445 1442 1445 1452 1457 1458 1458 1460 1463 1467 1472 1477 1483 1489 1496 1501 1503 1504 1505 1507 1508 1509 1509 1511 1511 1511 1509
1416 1433 1451 1411 1432 1437 1406 1400 1409 1422 1434 1424 1430 1425 1425 1436 1444 1445 1443 1448 1453 1456 1457 1457 1457 1459 1462 1468 1473 1480 1486 1491 1494 1496 1497 1499 1501 1503 1504 1505 1506 1506 1505 1505
1408 1409 1418 1419 1427 1413 1397 1402 1409 1452 1448 1430 1437 1436 1436 1438 1442 1442 1446 1449 1451 1454 1455 1456 1456 1458 1460 1466 1470 1476 1482 1486 1488 1492 1493 1495 1496 1498 1499 1500 1500 1501 1500 1499
1408 1412 1412 1409 1418 1427 1401 1408 1425 1431 1431 1434 1434 1433 1440 1444 1444 1445 1445 1444 1447 1451 1452 1453 1456 1457 1460 1466 1470 1474 1479 1483 1487 1488 1491 1492 1493 1494 1494 1495 1494 1494 1493 1494
1408 1414 1432 1427 1444 1435 1422 1420 1428 1434 1436 1437 1438 1440 1443 1446 1445 1444 1442 1443 1442 1445 1449 1450 1451 1454 1459 1463 1467 1471 1475 1478 1481 1484 1486 1488 1489 1489 1488 1488 1483 1485 1485 1486
1418 1421 1422 1433 1440 1439 1432 1420 1430 1434 1438 1439 1440 1443 1443 1442 1441 1438 1438 1440 1438 1434 1438 1433 1446 1447 1457 1462 1463 1463 1466 1471 1475 1478 1481 1482 1482 1481 1481 1481 1483 1486 1487 1479
1432 1424 1432 1425 1440 1439 1433 1432 1431 1435 1438 1437 1438 1439 1438 1437 1436 1435 1434 1437 1434 1439 1413 1433 1427 1443 1449 1458 1456 1449 1467 1472 1476 1477 1476 1479 1478 1476 1475 1478 1474 1475 1479 1474
1413 1432 1426 1431 1431 1433 1438 1438 1435 1439 1443 1440 1439 1439 1438 1437 1435 1431 1433 1435 1432 1419 1427 1428 1442 1446 1452 1453 1463 1459 1465 1464 1472 1473 1474 1475 1476 1474 1473 1471 1475 1474 1471 1471